Rbgn^[z[y[W
メイン
   新天体発見情報
     Comet C/2021 Q6 (PANSTARRS)
投稿するにはまず登録を

スレッド表示 | 新しいものから 前のトピック | 次のトピック | 下へ
投稿者 スレッド
佐藤裕久
投稿日時: 2021-9-27 13:44
モデレータ
登録日: 2005-6-12
居住地: 日本
投稿: 2424
オンライン
Comet C/2021 Q6 (PANSTARRS)

Y. Ramanjooloo (ハワイ大学、天文学研究所)の通報によると、8月22日、HaleakalaにあるPan-
STARRS1 1.8-m Ritchey-Chretien反射望遠鏡で得た120秒4枚のz-バンド画像から彗星を発見した。
この彗星は、1".5 (0".8-1".1のシーイング)の集光したコマとp.a. 約260°に低表面輝度の尾が
あるかもしれないとコメントした。
後に小惑星センターに報告された1月2日に遡るたくさんの発見前のPan-STARRS1の観測がある。
R. Weryk (西オンタリオ大学,物理および天文学科)は、彼とR. Wainscoatが、9月3.46日UT、
Mauna Keaにある3.6-m Canada-France-Hawaii望遠鏡で得た90秒3枚のgri-バンド確認観測から、
0".5のシーイングにおいて1".25(半値全幅:FWHM)の大変集光したコマが見え、p.a. 200°に1" の
まっすぐな尾があった。

発見位置は次のとおり、

     2021 UT             R.A. (2000) Decl.       Mag.
     Jan.  2.29049    2 12 14.02   +33 32 26.0   22.1
           3.35078    2 11 52.70   +33 28 55.3   21.9
           9.26746    2 10 03.94   +33 09 47.1   22.4
           9.27969    2 10 03.73   +33 09 44.7   21.8
           9.29186    2 10 03.52   +33 09 42.3   21.9
           9.30404    2 10 03.30   +33 09 40.0   22.3
          30.24801    2 05 55.37   +32 10 22.5   21.8
          31.30372    2 05 48.28   +32 07 47.9   22.1
          31.31607    2 05 48.24   +32 07 46.5   21.9
     July 28.60384    2 25 08.31   +33 19 41.9   20.8
          28.61431    2 25 08.23   +33 19 42.8   21.3
     Aug. 19.46971    2 20 04.75   +33 38 19.8   20.8
          19.48083    2 20 04.53   +33 38 20.3   21.7
          19.49200    2 20 04.31   +33 38 20.7   21.5
          19.50315    2 20 04.09   +33 38 20.7   21.3
          20.51780    2 19 44.22   +33 38 48.6   21.1
          20.53026    2 19 43.96   +33 38 48.6   21.6
          20.54271    2 19 43.71   +33 38 48.8   21.3
          20.55537    2 19 43.45   +33 38 49.4   21.5
          20.63697    2 19 41.82   +33 38 51.2   20.4
          22.51958    2 19 03.47   +33 39 34.7   22.2
          22.52722    2 19 03.30   +33 39 34.6   22.1
          22.53486    2 19 03.16   +33 39 34.8   21.9
          22.54342    2 19 02.98   +33 39 35.0   22.1

MPCの準放物線軌道要素、位置推算表は次のとおり、

Orbital elements:
    C/2021 Q6 (PANSTARRS)                                                       
Epoch 2024 Mar. 31.0 TT = JDT 2460400.5                                         
T 2024 Mar. 24.80955 TT                                 Rudenko                 
q   8.7102545            (2000.0)            P               Q                  
z  -0.0000528      Peri.  140.99295     +0.96883252     -0.10173225             
 +/-0.0000132      Node   133.53657     -0.21686736     -0.78897580             
e   1.0004601      Incl.  161.84654     +0.11971670     -0.60594368             
From 48 observations 2021 Jan. 2-Sept. 7, mean residual 0".2.                   
                                                                                
    C/2021 Q6 (PANSTARRS)                                                       
Epoch 2021 July 5.0 TT = JDT 2459400.5                                          
T 2024 Mar. 20.71958 TT                                 Rudenko                 
q   8.7183202            (2000.0)            P               Q                  
z  +0.0001132      Peri.  140.76396     +0.96925065     -0.09773759             
 +/-0.0000132      Node   133.54383     -0.21359812     -0.78984942             
e   0.9990133      Incl.  161.84677     +0.12218441     -0.60546284             
From 48 observations 2021 Jan. 2-Sept. 7, mean residual 0".2.                   
                                                                                
Ephemeris:
Date    TT    R. A. (2000) Decl.     Delta      r    Elong.  Phase   m1
2021 08 10    02 22 45.2 +33 32 10  10.1955 10.2922    92.6     5.6  21.2
...
2021 08 25    02 18 10.2 +33 40 17   9.9048 10.2479   107.1     5.4  21.1
...
2021 09 02    02 14 57.7 +33 40 37   9.7579 10.2245   114.9     5.1  21.0
...
2021 09 08    02 12 13.1 +33 38 42   9.6535 10.2070   120.9     4.9  21.0
2021 09 09    02 11 44.0 +33 38 11   9.6367 10.2041   121.8     4.8  21.0
2021 09 10    02 11 14.4 +33 37 37   9.6200 10.2012   122.8     4.8  21.0
...
2021 09 16    02 08 08.2 +33 32 56   9.5244 10.1838   128.7     4.4  21.0
...
2021 09 24    02 03 37.5 +33 23 14   9.4093 10.1608   136.5     3.9  20.9
...
2021 10 09    01 54 15.9 +32 53 47   9.2390 10.1179   150.2     2.8  20.9

(MPEC 2021-R167、CBET 5032)

スレッド表示 | 新しいものから 前のトピック | 次のトピック | トップ

投稿するにはまず登録を
 
© 1999 Tsutomu Seki.